Weather History for Tacoma Narrows, WA

Change the Weather History Date:

Monday, November 11, 2013

  Actual Average Record
Temperature  
Mean Temperature 48 °F -  
Max Temperature 54 °F 49 °F 59 °F (1999)
Min Temperature 42 °F 41 °F 30 °F (2000)
Degree Days  
Heating Degree Days 17    
Moisture  
Dew Point 43 °F    
Average Humidity 89    
Maximum Humidity 100    
Minimum Humidity 69    
Precipitation  
Precipitation 0.00 in - - ()
Sea Level Pressure  
Sea Level Pressure 30.08 in    
Wind  
Wind Speed 3 mph (North)    
Max Wind Speed 10 mph    
Max Gust Speed -    
Visibility 7 miles    
Events Fog    
Averages and records for this station are not official NWS values.
T = Trace of Precipitation, MM = Missing Value Source: NWS Daily Summary

Daily Weather History Graph

Daily Weather History Graph

Search for Another Location

Airport:

Trip Planner

Search our weather history database for the weather conditions in past years. The results will help you decide how hot, cold, wet, or windy it might be!

Date:

Astronomy

Nov. 11, 2013 Rise Set
Actual Time 7:09 AM PST 4:39 PM PST
Civil Twilight 6:36 AM PST 5:12 PM PST
Nautical Twilight 5:59 AM PST 5:48 PM PST
Astronomical Twilight 5:23 AM PST 6:24 PM PST
Moon 1:44 PM PST (11/11) 12:36 AM PST (11/11)
Length of Visible Light 10h 36m
Length of Day
9h 30m
Waxing Gibbous, 67% of the Moon is Illuminated
Nov 11
Waxing Gibbous
Nov 17
Full
Nov 25
Last Quarter
Dec 2
New
Dec 9
First Quarter

Hourly Weather History & Observations

Time (PST) Temp. Windchill Dew Point Humidity Pressure Visibility Wind Dir Wind Speed Gust Speed Precip Events Conditions
12:53 AM 46.9 °F - 43.0 °F 86% 30.12 in 10.0 mi NNE 10.4 mph - N/A   Clear
1:53 AM 46.9 °F - 43.0 °F 86% 30.13 in 10.0 mi North 10.4 mph - N/A   Clear
2:53 AM 46.0 °F 42.5 °F 42.1 °F 86% 30.13 in 10.0 mi North 6.9 mph - N/A   Clear
3:53 AM 45.0 °F 40.1 °F 41.0 °F 86% 30.13 in 10.0 mi North 9.2 mph - N/A   Clear
4:53 AM 44.1 °F 42.5 °F 41.0 °F 89% 30.13 in 10.0 mi NNW 3.5 mph - N/A   Clear
5:53 AM 42.1 °F - 39.9 °F 92% 30.14 in 10.0 mi Calm Calm - N/A   Clear
6:53 AM 43.0 °F - 39.9 °F 89% 30.16 in 10.0 mi Calm Calm - N/A   Clear
7:53 AM 44.1 °F - 42.1 °F 93% 30.15 in 10.0 mi Calm Calm - N/A   Clear
8:53 AM 46.0 °F - 43.0 °F 89% 30.17 in 10.0 mi Calm Calm - N/A   Scattered Clouds
9:02 AM 46.4 °F - 42.8 °F 87% 30.16 in 10.0 mi Calm Calm - N/A   Mostly Cloudy
9:46 AM 46.4 °F - 44.6 °F 93% 30.16 in 10.0 mi Calm Calm - N/A   Scattered Clouds
9:53 AM 46.9 °F - 44.1 °F 90% 30.17 in 10.0 mi Calm Calm - N/A   Partly Cloudy
10:53 AM 48.0 °F - 44.1 °F 86% 30.15 in 10.0 mi Calm Calm - N/A   Partly Cloudy
11:53 AM 50.0 °F - 44.1 °F 80% 30.13 in 10.0 mi Calm Calm - N/A   Clear
12:53 PM 53.1 °F - 45.0 °F 74% 30.12 in 10.0 mi Calm Calm - N/A   Clear
1:53 PM 54.0 °F - 44.1 °F 69% 30.09 in 10.0 mi Calm Calm - N/A   Clear
2:53 PM 52.0 °F - 45.0 °F 77% 30.06 in 10.0 mi Calm Calm - N/A   Clear
3:53 PM 51.1 °F - 45.0 °F 80% 30.07 in 10.0 mi Calm Calm - N/A   Clear
4:53 PM 48.9 °F - 44.1 °F 83% 30.04 in 10.0 mi Calm Calm - N/A   Clear
5:53 PM 48.0 °F - 44.1 °F 86% 30.06 in 10.0 mi Calm Calm - N/A   Clear
6:53 PM 48.0 °F - 44.1 °F 86% 30.04 in 10.0 mi Calm Calm - N/A   Clear
7:53 PM 46.9 °F - 44.1 °F 90% 30.04 in 10.0 mi Calm Calm - N/A   Clear
8:53 PM 46.0 °F - 42.1 °F 86% 30.04 in 9.0 mi Calm Calm - N/A   Clear
9:05 PM 44.6 °F - 41.0 °F 87% 30.03 in 2.5 mi Calm Calm - N/A   Partly Cloudy
9:13 PM 46.4 °F - 44.6 °F 93% 30.03 in 1.5 mi Calm Calm - N/A   Partly Cloudy
9:19 PM 44.6 °F - 42.8 °F 93% 30.03 in 0.8 mi Calm Calm - N/A   Mist
9:29 PM 46.4 °F - 42.8 °F 87% 30.02 in 0.2 mi Calm Calm - N/A Fog Fog
9:36 PM 46.4 °F - 44.6 °F 93% 30.02 in 1.0 mi Calm Calm - N/A   Mist
9:40 PM 46.4 °F - 44.6 °F 93% 30.02 in 2.0 mi Calm Calm - N/A   Scattered Clouds
9:45 PM 44.6 °F - 44.6 °F 100% 30.02 in 1.0 mi Calm Calm - N/A   Mist
9:53 PM 45.0 °F - 44.1 °F 97% 30.03 in 1.2 mi Calm Calm - N/A   Partly Cloudy
9:59 PM 44.6 °F - 42.8 °F 93% 30.02 in 0.8 mi Calm Calm - N/A   Mist
10:04 PM 46.4 °F - 44.6 °F 93% 30.02 in 1.0 mi Calm Calm - N/A   Clear
10:11 PM 46.4 °F - 44.6 °F 93% 30.02 in 3.0 mi Calm Calm - N/A   Clear
10:45 PM 44.6 °F - 42.8 °F 93% 30.02 in 1.8 mi Calm Calm - N/A   Clear
10:53 PM 46.0 °F - 44.1 °F 93% 30.03 in 2.5 mi Calm Calm - N/A   Clear
10:59 PM 44.6 °F - 42.8 °F 93% 30.03 in 1.0 mi Calm Calm - N/A   Mist
11:07 PM 44.6 °F - 42.8 °F 93% 30.03 in 2.0 mi Calm Calm - N/A   Partly Cloudy
11:15 PM 46.4 °F 45.2 °F 44.6 °F 93% 30.04 in 6.0 mi South 3.5 mph - N/A   Clear
11:53 PM 46.9 °F - 45.0 °F 93% 30.04 in 6.0 mi Calm Calm - N/A   Partly Cloudy